Wind_Speed
41 41 41 41 41 41 42 42 42 42 42 43 43 43 43 43 43 43 43 42 42 41 41 41 40 40 40 40 40 40 41 41 41 42 42 42 42 42 42 43 43 43 43 43 43 43 43 43 43 43 43 43
42 42 42 42 42 43 43 43 43 43 43 43 44 44 43 43 43 42 42 42 41 41 41 41 41 41 41 41 41 41 42 42 42 43 43 43 44 44 44 45 45 45 45 45 45 45 45 45 45 45 45 45
43 43 43 43 43 44 44 44 44 44 44 44 44 43 43 43 43 42 42 41 41 41 41 41 42 42 42 42 43 43 43 43 44 44 44 45 45 45 46 46 46 47 47 47 47 47 47 47 47 47 48 47
43 43 43 44 44 44 44 44 44 44 44 44 43 43 43 43 42 42 42 42 42 42 42 42 43 43 44 44 44 44 44 45 45 45 46 46 47 47 47 48 48 48 48 49 49 49 49 49 49 49 49 49
43 43 43 44 44 44 44 44 44 44 44 44 44 44 43 43 43 43 43 43 43 43 44 44 44 45 45 45 46 46 46 46 47 47 48 48 48 49 49 49 50 50 50 51 51 51 51 51 51 51 51 51
43 43 44 44 44 44 44 44 44 44 44 44 44 44 44 43 43 43 44 44 44 44 45 45 46 46 47 47 47 47 48 48 48 49 49 50 50 51 51 51 52 52 52 52 53 53 53 53 53 53 53 53
44 44 44 44 44 44 44 44 44 44 44 44 44 44 44 44 44 44 44 45 45 46 46 47 47 48 48 48 49 49 49 50 50 51 51 52 52 53 53 53 54 54 54 54 55 55 55 55 55 55 56 55
44 44 44 44 44 44 44 44 44 44 44 44 44 44 44 44 45 45 46 46 47 47 48 48 49 49 49 49 50 50 51 51 52 52 53 53 54 54 55 55 56 56 56 57 57 57 57 58 58 58 58 58
45 45 45 45 45 45 45 45 45 45 45 45 45 45 45 45 46 46 47 48 48 49 49 49 50 50 50 51 51 52 52 53 53 54 54 55 55 56 56 57 57 57 58 58 58 59 59 59 60 60 61 61
45 45 45 45 45 45 45 45 45 45 45 45 46 46 46 47 47 48 49 49 50 50 50 51 51 51 52 52 53 53 54 54 55 55 56 56 57 57 58 58 58 59 59 59 59 60 60 60 61 61 62 62
46 46 46 46 46 46 46 46 46 46 46 47 47 47 48 48 49 49 50 50 50 51 51 52 52 53 53 54 54 55 55 56 57 57 58 58 58 59 59 59 60 60 60 60 60 60 60 61 61 62 63 63
46 46 46 46 46 46 47 47 47 47 48 48 48 49 49 49 50 50 50 51 52 52 53 54 54 54 55 55 56 57 57 58 58 59 59 59 59 60 60 60 60 60 60 60 60 60 61 61 62 62 63 64
47 47 47 47 47 47 48 48 49 49 49 49 50 50 50 50 51 51 52 53 53 54 55 55 55 56 56 57 58 58 59 59 59 59 60 60 60 61 61 61 61 61 61 61 61 61 62 62 63 63 64 64
48 48 48 48 48 48 49 50 50 50 50 50 50 50 51 51 52 53 53 54 55 55 55 56 56 57 57 58 59 59 60 60 60 60 60 61 61 61 61 62 62 62 62 62 63 63 63 63 64 65 65 65
48 48 48 48 49 50 50 50 51 51 51 51 51 52 52 53 53 54 55 55 55 56 56 56 57 58 59 59 60 60 61 61 61 61 61 61 61 62 62 62 62 62 63 63 63 64 64 65 65 66 66 66
48 49 49 49 50 51 51 51 51 51 51 51 52 53 53 54 54 55 55 56 56 56 57 57 58 59 60 60 61 61 61 61 61 61 61 62 62 62 63 63 63 63 64 64 65 65 65 65 66 66 67 67
49 49 50 51 51 51 52 52 51 51 52 52 53 54 54 55 55 56 56 56 57 57 58 59 59 60 61 61 61 61 61 61 61 62 62 62 62 63 63 63 64 64 65 65 66 66 66 66 66 67 67 67
50 51 51 52 52 52 52 52 52 52 53 53 54 55 55 56 56 56 57 57 58 59 59 60 61 61 61 61 62 62 62 62 62 62 62 63 63 63 63 64 64 65 65 66 66 67 67 67 67 67 67 67
52 52 52 52 52 52 53 53 53 53 54 55 55 56 56 56 57 57 58 59 60 60 61 61 62 62 62 62 62 62 63 63 63 63 63 63 64 64 64 65 65 66 66 67 67 68 68 68 68 68 68 68
53 53 53 53 53 53 53 53 54 54 55 56 56 56 57 57 58 59 59 60 61 61 62 62 62 63 63 63 63 63 64 64 64 64 64 64 65 65 65 66 66 67 68 68 68 69 69 69 69 69 69 69
53 53 53 53 54 54 54 54 55 55 56 56 57 57 58 58 59 60 61 61 62 62 63 63 63 63 63 63 64 64 64 64 65 65 65 65 65 66 66 67 67 68 69 69 69 70 70 70 70 69 69 70
52 53 53 53 54 54 54 55 56 56 57 57 57 58 58 59 60 61 62 62 63 63 63 63 63 64 64 64 64 65 65 65 65 65 66 66 66 67 68 68 69 70 70 71 71 71 71 71 71 71 71 71
53 53 53 54 54 54 55 56 56 57 57 57 58 58 60 61 61 62 63 63 63 63 63 64 64 64 65 65 65 66 66 66 66 66 67 67 68 68 69 70 71 71 72 72 72 72 72 72 72 72 72 72
53 53 54 54 55 55 56 57 57 58 58 58 58 60 61 61 62 63 64 64 64 64 64 64 65 65 66 66 66 66 67 67 67 67 68 69 69 70 71 72 72 73 73 73 73 73 73 73 73 73 73 73
53 54 54 55 55 56 57 58 58 58 58 59 60 61 61 62 64 64 64 64 64 65 65 65 66 66 67 67 67 67 68 68 68 69 70 70 71 72 73 73 74 74 74 74 74 74 74 74 74 74 74 74
54 55 55 56 56 58 59 59 59 58 59 60 61 62 63 64 65 65 65 65 66 66 66 67 67 68 68 68 68 69 69 69 70 70 71 72 73 74 74 75 75 75 75 75 75 76 76 76 75 75 74 74
55 56 56 58 59 60 60 59 59 59 59 61 62 63 64 65 65 66 66 67 67 67 67 68 69 69 69 69 69 70 70 70 71 72 72 73 74 75 75 76 76 76 76 75 76 76 77 77 77 76 75 74
56 57 58 59 60 60 60 60 60 60 61 61 63 64 65 66 67 67 67 67 68 68 69 70 70 71 71 71 71 71 71 71 72 72 73 74 75 75 76 76 76 76 75 75 76 77 77 78 77 77 77 76
57 58 59 60 60 60 60 60 61 61 62 62 64 66 66 67 68 67 67 68 69 70 71 72 72 73 72 72 72 71 71 71 72 72 73 74 75 76 76 77 76 76 75 75 76 77 78 79 78 78 78 77
59 60 61 61 61 61 61 61 62 62 63 64 65 66 67 67 68 68 68 69 70 72 73 74 74 74 73 72 72 71 71 72 73 74 74 75 75 75 76 77 76 76 76 76 76 77 78 79 79 79 79 79
61 62 62 63 62 62 62 62 62 63 64 65 66 67 67 67 68 68 69 71 72 74 75 74 74 74 73 73 72 73 73 73 74 75 75 75 76 76 76 77 77 77 77 76 77 77 78 79 79 79 79 79
Wind_Direction
266 267 267 267 267 267 266 266 266 265 265 266 266 266 266 266 266 266 267 267 267 267 268 268 268 268 268 268 267 267 267 268 268 269 269 270 270 271 271 272 272 273 273 274 274 274 274 273 273 273 272 272
267 267 268 267 267 266 266 265 265 265 265 265 265 266 265 265 266 266 266 267 267 267 268 268 268 268 268 268 268 268 268 268 269 270 271 272 273 273 274 275 275 276 276 276 277 277 277 277 276 276 276 275
268 268 267 267 266 266 265 265 265 265 265 266 266 266 266 266 267 267 267 267 267 268 268 268 268 268 268 268 268 269 270 271 272 273 274 275 276 276 277 278 278 278 279 279 279 279 278 278 278 277 277 277
268 267 267 266 266 265 265 265 265 266 266 266 267 267 267 268 268 267 267 267 267 267 267 267 267 267 268 269 270 271 272 273 274 275 275 276 277 277 278 279 279 279 279 279 279 279 279 278 278 278 277 277
267 266 265 265 264 264 265 265 265 266 266 267 267 268 268 268 267 267 267 266 266 266 266 266 267 267 268 269 270 271 272 273 274 274 275 276 276 277 277 278 278 278 278 278 278 278 278 278 277 277 277 277
265 264 263 263 264 264 265 265 266 266 266 267 267 267 267 267 266 266 266 265 265 265 265 266 266 267 268 269 269 270 271 272 273 274 275 275 276 276 276 276 277 277 277 277 277 277 277 277 277 276 276 276
264 263 263 264 264 265 265 266 266 266 266 267 267 266 266 266 266 266 266 265 265 266 266 266 267 268 268 269 270 271 272 273 273 274 274 275 275 275 276 276 276 276 276 276 276 276 276 276 276 276 275 275
264 264 264 265 265 266 266 266 266 266 267 267 266 266 266 266 266 266 266 266 266 267 267 267 268 269 270 270 271 272 272 273 273 273 274 274 275 275 275 276 276 276 276 276 276 276 276 276 276 276 276 275
266 266 266 266 266 266 266 266 266 267 266 267 267 267 267 267 267 267 267 267 267 267 268 269 270 270 271 271 272 272 272 273 274 274 275 275 275 276 276 276 276 276 276 276 276 276 276 276 276 276 276 276
267 267 266 267 266 266 266 266 266 267 267 267 267 268 267 267 267 267 267 268 269 269 270 271 271 271 272 272 273 273 274 275 275 275 276 276 276 276 276 276 277 277 277 277 277 277 277 277 277 277 277 277
267 267 267 267 267 267 267 267 267 268 268 268 268 268 268 268 268 269 269 270 271 271 272 272 272 273 273 274 274 275 275 276 276 276 276 276 277 277 277 277 278 278 278 278 278 278 278 278 279 279 279 279
267 267 268 267 268 268 268 268 269 269 269 269 269 269 269 269 270 271 271 272 272 272 273 273 273 274 275 275 276 276 277 277 277 277 277 278 278 278 278 279 279 279 280 280 280 280 280 280 280 280 280 281
268 268 268 268 268 268 269 269 269 269 269 269 269 269 270 270 271 272 272 272 273 273 273 274 274 275 276 276 277 277 277 277 278 278 278 279 279 280 280 280 281 281 281 281 281 281 281 281 282 282 282 282
267 268 268 268 268 269 269 269 269 269 269 269 270 270 270 271 271 272 272 273 273 273 274 275 275 276 276 277 277 277 277 278 278 278 279 279 280 281 281 282 282 282 282 283 283 283 283 283 283 283 283 283
267 268 268 268 268 269 269 269 269 269 269 270 270 270 271 271 272 272 272 273 273 274 275 275 276 276 277 277 277 278 278 278 279 279 280 281 281 282 283 283 283 283 283 283 283 283 283 283 283 283 284 284
268 268 268 269 269 269 269 269 270 269 269 270 270 270 271 271 272 272 273 274 274 275 276 276 276 277 277 278 278 278 279 279 279 280 281 281 282 283 283 284 284 284 284 284 283 283 283 283 283 284 284 284
269 269 269 269 269 269 270 269 269 269 270 270 271 271 271 272 273 273 274 275 275 275 276 276 277 277 277 278 278 278 279 279 280 280 281 281 282 283 283 283 284 284 284 283 283 283 283 283 283 283 283 283
269 269 269 269 269 269 269 269 269 270 270 271 271 272 272 273 273 274 274 275 275 276 276 276 277 277 277 278 278 278 279 279 279 280 280 281 281 282 282 282 282 283 283 283 282 282 282 282 282 282 282 282
269 269 269 269 269 269 269 269 270 270 271 271 271 272 273 273 274 274 275 275 275 276 276 276 277 277 277 277 278 278 278 279 279 280 280 281 281 281 281 282 282 282 282 282 282 282 282 281 281 281 281 281
268 268 268 268 268 268 269 270 270 271 271 271 272 273 273 274 274 275 275 275 275 276 276 276 277 277 277 277 278 278 278 279 279 280 280 281 281 281 281 281 281 281 281 282 282 281 281 281 281 281 281 281
267 267 267 267 268 268 269 270 270 270 271 272 272 273 274 274 274 275 275 275 275 276 276 276 276 277 277 277 278 278 278 279 279 280 280 280 280 281 281 281 281 281 281 281 281 281 281 281 281 281 281 281
266 267 267 268 269 269 270 270 270 270 271 272 273 274 274 274 274 274 275 275 275 275 276 276 276 276 277 277 277 278 279 279 279 279 280 280 280 280 280 280 280 280 280 280 280 280 281 281 281 281 281 281
267 268 268 269 269 269 269 270 270 271 272 273 274 274 274 274 274 274 274 275 275 275 275 276 276 276 276 277 277 278 278 279 279 280 280 280 280 280 280 280 280 280 280 280 280 280 280 281 281 281 281 281
269 269 269 269 269 270 270 270 271 272 273 274 274 273 274 274 274 274 274 274 274 275 275 275 276 276 277 277 278 278 279 279 279 280 280 280 280 279 279 279 279 279 280 280 280 280 280 280 281 281 281 281
269 269 269 269 270 270 270 271 272 273 274 274 273 273 274 274 273 273 274 274 275 275 275 275 276 276 277 278 278 279 279 279 280 280 279 279 279 279 279 279 279 279 279 280 280 280 280 279 280 280 280 280
268 269 269 270 271 271 271 273 274 274 274 274 274 273 273 273 273 274 274 275 275 275 276 276 276 277 278 278 279 279 279 279 279 279 279 279 279 279 279 279 279 279 279 279 280 280 279 279 279 279 279 280
268 269 270 271 271 272 273 274 275 275 274 274 273 273 273 273 274 274 275 275 276 276 277 277 277 277 278 278 278 278 278 278 278 279 279 279 279 279 279 279 279 279 280 280 280 279 279 279 279 279 279 279
270 270 271 271 272 273 274 275 275 274 274 273 273 273 273 273 274 275 276 276 277 277 277 277 277 276 276 276 276 277 277 278 279 279 279 279 279 279 279 279 279 280 280 280 280 280 279 279 279 279 279 279
270 271 271 272 273 274 274 275 274 274 273 273 273 273 274 274 275 276 277 277 277 276 276 275 275 275 275 276 277 278 278 279 279 279 279 279 279 279 280 280 280 280 280 280 280 280 280 280 280 279 279 279
271 271 272 273 273 274 274 274 274 273 273 273 273 274 275 276 277 277 276 276 275 274 274 275 275 276 277 278 278 278 278 278 278 278 279 279 279 280 280 280 280 280 280 280 280 280 280 280 280 280 280 279
271 272 272 273 273 274 273 273 274 274 274 274 275 276 277 277 276 275 275 274 274 274 275 276 277 278 278 278 278 278 278 278 278 279 279 279 280 280 280 280 281 281 280 280 280 280 280 280 280 280 280 280
Height
5776 5777 5778 5779 5779 5779 5779 5778 5778 5778 5778 5778 5778 5778 5778 5778 5778 5778 5778 5778 5778 5778 5778 5778 5777 5777 5777 5777 5777 5777 5777 5777 5777 5777 5776 5777 5777 5777 5777 5777 5777 5777 5777 5777 5777 5777 5777 5777 5777 5777 5777 5777
5772 5773 5774 5774 5774 5775 5775 5774 5774 5774 5774 5774 5774 5774 5774 5774 5774 5774 5774 5774 5774 5774 5773 5773 5773 5773 5773 5773 5773 5772 5772 5772 5772 5772 5772 5771 5771 5771 5771 5771 5771 5772 5772 5772 5771 5771 5771 5771 5771 5771 5771 5771
5768 5769 5769 5769 5770 5770 5770 5770 5770 5770 5770 5770 5770 5770 5770 5770 5770 5770 5770 5770 5770 5769 5769 5769 5769 5769 5768 5768 5768 5768 5767 5767 5767 5767 5766 5766 5766 5766 5765 5765 5766 5766 5766 5766 5766 5766 5766 5766 5766 5766 5766 5766
5764 5764 5765 5765 5765 5765 5765 5765 5766 5765 5765 5765 5765 5765 5765 5765 5765 5765 5766 5765 5765 5765 5765 5765 5764 5764 5764 5763 5763 5763 5763 5762 5762 5762 5761 5761 5761 5761 5760 5760 5760 5760 5760 5760 5760 5760 5760 5760 5760 5760 5760 5760
5760 5760 5760 5760 5760 5760 5761 5761 5761 5761 5761 5760 5760 5761 5761 5761 5761 5761 5761 5761 5761 5760 5760 5760 5760 5759 5759 5759 5758 5758 5758 5758 5757 5757 5757 5756 5756 5756 5755 5755 5755 5755 5755 5755 5755 5755 5755 5755 5755 5755 5754 5754
5756 5756 5756 5756 5756 5756 5756 5756 5756 5756 5756 5756 5756 5756 5756 5756 5756 5756 5756 5756 5756 5756 5755 5755 5755 5754 5754 5754 5754 5754 5753 5753 5752 5752 5752 5751 5751 5751 5750 5750 5750 5750 5750 5750 5750 5749 5749 5749 5749 5749 5749 5749
5751 5751 5751 5751 5751 5751 5751 5751 5751 5751 5751 5751 5751 5751 5751 5751 5751 5751 5751 5751 5751 5750 5750 5750 5750 5749 5749 5749 5749 5748 5748 5748 5747 5747 5747 5746 5746 5745 5745 5745 5745 5745 5744 5744 5744 5744 5744 5743 5743 5743 5743 5743
5746 5746 5746 5746 5746 5746 5746 5746 5746 5746 5746 5746 5746 5746 5746 5746 5746 5746 5746 5746 5745 5745 5745 5745 5745 5744 5744 5744 5743 5743 5743 5742 5742 5742 5741 5741 5740 5740 5739 5739 5739 5739 5738 5738 5738 5738 5737 5737 5737 5736 5736 5736
5741 5741 5741 5741 5741 5741 5741 5741 5741 5741 5741 5741 5741 5741 5741 5741 5741 5741 5740 5740 5740 5740 5740 5739 5739 5739 5739 5738 5738 5738 5737 5737 5736 5736 5735 5735 5734 5733 5733 5732 5732 5732 5732 5732 5731 5731 5731 5730 5730 5729 5728 5728
5736 5736 5736 5736 5736 5736 5736 5736 5736 5736 5736 5736 5736 5736 5736 5735 5735 5735 5735 5735 5734 5734 5734 5734 5734 5733 5733 5733 5732 5732 5731 5730 5730 5729 5729 5728 5727 5727 5726 5726 5725 5725 5725 5725 5724 5724 5724 5723 5722 5722 5721 5720
5731 5731 5731 5731 5731 5731 5731 5731 5731 5731 5731 5731 5731 5731 5730 5730 5730 5729 5729 5729 5729 5728 5728 5728 5728 5727 5727 5726 5726 5725 5725 5724 5723 5722 5721 5721 5720 5720 5719 5718 5718 5717 5717 5717 5717 5716 5716 5715 5714 5714 5713 5712
5727 5727 5726 5726 5726 5726 5726 5726 5726 5726 5726 5726 5725 5725 5725 5724 5724 5723 5723 5723 5723 5722 5722 5722 5721 5721 5720 5720 5719 5719 5718 5717 5716 5715 5714 5713 5713 5712 5711 5711 5710 5709 5709 5709 5709 5709 5708 5707 5706 5706 5705 5705
5722 5722 5722 5721 5721 5721 5721 5721 5721 5721 5720 5720 5720 5719 5719 5718 5718 5718 5717 5717 5717 5716 5716 5715 5715 5714 5714 5713 5713 5712 5711 5710 5709 5708 5707 5706 5705 5704 5703 5703 5702 5702 5701 5701 5701 5701 5700 5699 5698 5697 5697 5697
5717 5717 5717 5717 5716 5716 5716 5716 5715 5715 5715 5714 5714 5713 5713 5712 5712 5712 5711 5711 5710 5710 5709 5709 5708 5708 5707 5707 5706 5705 5705 5704 5703 5702 5700 5699 5698 5697 5696 5695 5695 5694 5693 5693 5693 5692 5692 5691 5690 5689 5689 5689
5712 5712 5712 5711 5711 5711 5710 5710 5710 5709 5709 5709 5708 5707 5707 5707 5706 5706 5705 5705 5704 5703 5703 5702 5702 5701 5701 5700 5699 5698 5697 5696 5695 5694 5693 5692 5691 5689 5688 5687 5687 5686 5686 5685 5685 5685 5684 5683 5682 5682 5681 5680
5707 5707 5706 5706 5705 5705 5705 5704 5704 5703 5703 5702 5702 5701 5701 5700 5700 5699 5698 5698 5697 5697 5696 5696 5695 5694 5694 5693 5692 5691 5690 5689 5688 5687 5686 5684 5683 5682 5680 5679 5679 5678 5678 5677 5677 5677 5676 5676 5675 5674 5673 5673
5701 5701 5700 5700 5699 5699 5699 5698 5698 5697 5697 5696 5696 5695 5694 5694 5693 5692 5692 5691 5690 5690 5689 5689 5688 5687 5687 5686 5685 5684 5683 5682 5681 5680 5679 5677 5676 5675 5674 5673 5671 5671 5670 5670 5669 5669 5669 5668 5667 5666 5666 5665
5695 5695 5694 5694 5693 5693 5692 5692 5691 5691 5690 5690 5689 5688 5688 5687 5686 5686 5685 5684 5683 5683 5682 5682 5681 5680 5679 5678 5677 5676 5675 5674 5673 5672 5671 5670 5669 5668 5667 5666 5665 5664 5663 5662 5662 5661 5661 5661 5660 5659 5659 5658
5689 5688 5688 5688 5687 5687 5686 5686 5685 5685 5684 5683 5683 5682 5681 5681 5680 5679 5678 5677 5676 5676 5675 5674 5673 5672 5672 5671 5670 5669 5668 5667 5666 5665 5664 5663 5662 5661 5660 5659 5658 5657 5655 5655 5654 5654 5653 5653 5652 5652 5651 5651
5683 5682 5682 5682 5681 5681 5680 5680 5679 5678 5678 5677 5676 5675 5675 5674 5673 5672 5671 5670 5669 5668 5668 5667 5666 5665 5664 5663 5662 5661 5660 5659 5658 5657 5656 5655 5655 5653 5652 5652 5650 5649 5648 5647 5646 5645 5645 5644 5644 5643 5642 5642
5677 5677 5676 5676 5675 5675 5674 5674 5673 5672 5671 5670 5669 5669 5668 5667 5666 5665 5664 5663 5662 5661 5660 5659 5658 5657 5656 5655 5654 5653 5652 5652 5651 5650 5648 5647 5647 5646 5645 5644 5643 5642 5640 5639 5638 5637 5636 5636 5635 5634 5634 5633
5671 5670 5669 5669 5669 5668 5668 5667 5666 5665 5664 5663 5663 5661 5660 5659 5658 5657 5656 5655 5654 5653 5652 5651 5650 5650 5649 5648 5647 5646 5645 5644 5643 5642 5641 5640 5639 5638 5637 5636 5635 5634 5633 5631 5630 5629 5628 5627 5626 5626 5625 5624
5664 5664 5663 5663 5662 5661 5660 5659 5659 5658 5657 5656 5656 5654 5653 5652 5651 5650 5648 5647 5647 5646 5645 5643 5642 5642 5641 5640 5639 5638 5637 5636 5635 5634 5633 5632 5631 5630 5629 5628 5627 5626 5624 5623 5622 5621 5620 5619 5618 5617 5616 5615
5658 5657 5656 5655 5654 5654 5652 5651 5651 5651 5650 5649 5648 5646 5645 5644 5642 5641 5640 5639 5639 5638 5637 5635 5634 5633 5633 5632 5631 5630 5629 5628 5627 5626 5624 5623 5622 5621 5620 5620 5619 5617 5616 5615 5614 5612 5611 5610 5609 5608 5607 5606
5650 5650 5648 5647 5647 5646 5644 5644 5644 5644 5643 5641 5640 5638 5637 5635 5634 5633 5632 5632 5631 5630 5628 5627 5626 5625 5624 5624 5623 5622 5621 5620 5619 5617 5616 5615 5613 5612 5611 5611 5610 5609 5608 5607 5605 5603 5602 5601 5600 5598 5597 5597
5642 5642 5641 5640 5639 5638 5636 5637 5637 5637 5635 5633 5631 5630 5628 5627 5625 5625 5624 5623 5622 5621 5620 5619 5618 5617 5616 5615 5615 5614 5613 5611 5610 5609 5607 5606 5605 5603 5602 5601 5601 5600 5599 5598 5596 5594 5592 5591 5591 5591 5589 5587
5635 5634 5633 5632 5631 5630 5629 5630 5630 5629 5627 5624 5622 5620 5619 5618 5617 5616 5616 5615 5614 5613 5611 5610 5609 5609 5608 5607 5606 5605 5604 5602 5601 5600 5598 5596 5595 5594 5593 5592 5592 5591 5590 5588 5586 5584 5582 5580 5580 5580 5580 5580
5628 5626 5625 5624 5623 5623 5622 5622 5622 5620 5619 5615 5612 5611 5611 5610 5609 5608 5608 5606 5605 5604 5602 5601 5601 5600 5599 5599 5598 5597 5595 5594 5592 5591 5589 5587 5586 5584 5583 5582 5583 5582 5581 5579 5576 5573 5572 5571 5570 5568 5568 5569
5619 5618 5618 5617 5616 5616 5615 5615 5613 5612 5610 5606 5603 5603 5602 5601 5600 5600 5600 5598 5596 5595 5592 5591 5591 5590 5590 5590 5589 5588 5587 5585 5583 5581 5579 5578 5576 5574 5572 5572 5573 5573 5571 5569 5567 5563 5561 5559 5560 5558 5557 5557
5611 5611 5610 5609 5609 5609 5607 5606 5605 5603 5600 5596 5595 5595 5593 5592 5592 5591 5591 5589 5587 5585 5583 5582 5581 5581 5581 5581 5580 5579 5577 5575 5573 5571 5570 5568 5567 5565 5563 5562 5562 5562 5561 5560 5557 5554 5551 5549 5547 5547 5546 5545
5604 5603 5603 5602 5601 5600 5599 5598 5596 5593 5590 5588 5587 5586 5585 5583 5582 5581 5580 5579 5577 5575 5574 5573 5573 5572 5571 5571 5570 5569 5567 5566 5563 5561 5560 5558 5557 5556 5554 5553 5552 5551 5551 5550 5547 5545 5542 5539 5537 5535 5535 5533